Tracking 19634 objects as of 21-May-2019
HD Live streaming from Space Station
objects crossing your sky now

TIROS 6

Track TIROS 6 now!
10-day predictions
TIROS 6 is classified as:


NORAD ID: 397
Int'l Code: 1962-047A
Perigee: 603.5 km
Apogee: 616.8 km
Inclination: 58.3 °
Period: 96.7 minutes
Semi major axis: 6981 km
RCS: 0.807 m2 (medium)
Launch date: September 18, 1962
Source: United States (US)
Launch site: AIR FORCE EASTERN TEST RANGE (AFETR)
aabbcc
Your satellite tracking list
Your tracking list is empty




NASA's NSSDC Master Catalog

Two Line Element Set (TLE):
1   397U 62047A   19141.18251548 -.00000105  00000-0  11898-4 0  9996
2   397  58.3062  78.3980 0009543 151.5838 208.5729 14.88376640 48374
Source of the keplerian elements: AFSPC